Location: *
(49.9853°N, 3.5569°E)
Time: 11:55:46
(UTC+00:00)

ASTEX 1 - Pass Details

Date: 22 September 2019
Orbit: 720 x 744 km, 92.7° (Epoch: 18 October)

Event Time Altitude Azimuth Distance (km) Brightness Sun altitude
Rises 19:07:42 0° 5° (N) 3,146 6.8 -14.0°
Reaches altitude 10° 19:10:00 10° 6° (N) 2,220 6.0 -14.3°
Maximum altitude 19:14:54 90° 17° (NNE) 728 3.3 -15.1°
Drops below altitude 10° 19:19:47 10° 188° (S) 2,205 5.8 -15.8°
Sets 19:22:04 0° 188° (S) 3,123 6.5 -16.2°
